Wind_Speed
48 45 47 47 45 43 40 43 44 44 43 41 43 47 48 48 37 27 29 32 34 33 34 31 26 31 31 28 27 24 19 17 15 14 12 13 13 10 7 7 8 7 4
47 46 48 46 42 38 37 38 42 38 38 41 43 46 50 44 31 26 35 39 39 36 37 33 37 40 32 33 26 20 14 13 12 10 10 8 8 5 2 2 3 2 2
49 47 51 48 41 39 37 37 36 35 37 41 43 49 49 37 29 37 42 46 46 41 43 26 35 39 32 31 26 23 18 15 13 12 7 5 2 1 2 3 5 4 3
53 49 49 52 52 44 38 33 36 38 37 41 45 48 47 28 30 44 41 46 48 46 46 42 39 33 31 24 25 22 21 19 16 14 10 8 6 5 6 6 6 4 3
53 46 43 46 47 43 40 32 36 35 37 40 45 47 32 24 28 42 43 43 46 48 46 38 37 43 34 32 28 25 24 20 18 15 17 13 11 9 7 8 8 8 7
55 52 43 43 42 40 41 34 36 39 41 39 45 42 24 27 32 39 50 43 40 50 48 47 47 45 42 36 31 31 29 26 22 20 18 15 10 13 11 12 10 12 13
54 54 48 43 43 39 38 33 34 38 38 40 42 32 24 35 38 40 46 34 40 50 52 47 47 49 43 39 34 34 35 31 25 23 21 22 23 18 15 16 17 17 21
55 53 51 47 47 42 39 33 34 39 39 41 40 24 28 36 46 52 49 44 47 51 54 50 49 48 41 39 32 35 36 37 33 28 26 23 21 22 26 20 22 23 24
58 54 52 46 47 46 46 45 35 41 42 40 34 20 32 38 43 55 59 47 48 51 54 52 46 47 42 38 36 32 34 36 36 37 37 33 31 29 24 25 27 25 25
59 53 50 48 47 47 45 47 43 42 36 34 31 22 31 42 44 51 62 50 43 47 52 54 47 43 41 40 37 33 33 32 36 37 41 39 33 26 26 31 31 28 29
61 59 48 45 44 49 43 43 42 35 32 31 30 24 31 40 46 50 62 59 53 53 53 57 56 51 43 38 37 37 31 32 35 32 25 21 26 27 28 27 29 29 26
60 60 54 45 44 47 46 48 37 33 37 34 30 33 35 37 39 57 55 58 57 58 56 57 57 55 47 42 39 37 32 32 32 34 35 31 32 31 35 34 35 33 34
56 59 51 51 49 46 39 38 30 38 36 35 28 36 40 37 35 46 57 64 58 60 54 58 59 57 52 49 45 43 40 39 31 39 40 39 35 35 37 40 40 40 39
56 49 51 51 47 42 38 32 33 39 37 38 32 36 41 44 42 43 51 57 62 57 55 57 62 60 59 58 54 49 46 48 46 47 42 41 47 45 43 46 47 46 45
49 45 44 47 47 50 44 33 39 40 38 34 35 36 44 45 47 47 52 54 60 58 58 56 59 62 63 64 63 60 51 51 53 51 52 51 45 46 50 51 52 53 50
42 44 46 42 39 35 33 34 38 38 34 33 34 36 47 48 49 48 49 55 55 56 59 59 57 61 63 67 66 63 62 59 57 55 54 53 50 50 52 56 54 52 56
38 38 42 43 39 38 39 43 41 36 37 39 37 41 44 52 52 51 52 57 57 57 57 55 57 64 66 66 67 66 64 63 63 60 58 53 55 52 54 55 57 58 59
37 37 40 36 36 30 42 44 46 40 41 42 44 42 43 48 50 51 52 55 56 57 52 56 57 56 67 69 68 67 62 61 61 61 62 62 60 60 61 59 59 62 64
40 44 42 44 43 38 37 44 47 41 40 40 48 39 40 42 44 47 50 51 56 54 55 57 56 55 55 60 67 70 67 65 64 65 64 67 65 62 65 66 68 64 62
49 49 47 42 41 40 48 47 47 44 40 46 39 36 37 37 40 43 42 43 46 52 55 55 58 59 58 56 58 62 63 61 59 60 63 63 66 69 69 64 61 66 67
47 52 49 46 49 42 48 50 49 44 40 41 35 35 36 35 39 35 38 41 45 51 58 60 56 61 63 64 62 62 61 62 67 68 67 70 69 64 66 68 66 67 66
43 48 42 40 47 43 50 49 50 48 45 45 35 39 38 37 38 36 42 43 40 39 43 48 53 60 63 67 66 70 75 76 68 67 69 66 69 68 66 65 66 68 71
43 35 37 50 48 48 51 52 54 53 50 53 45 41 43 41 40 38 43 43 38 35 33 35 42 48 56 57 60 66 66 68 73 75 74 72 68 69 69 69 70 72 75
37 33 47 46 44 50 55 59 57 55 54 53 49 44 48 46 46 41 43 43 40 41 42 40 48 51 58 60 62 66 71 71 71 73 72 72 76 73 73 73 74 75 74
49 52 55 57 60 61 60 61 58 57 55 52 49 48 48 51 52 48 46 48 45 46 49 51 51 56 59 62 69 69 73 76 79 76 78 78 76 76 75 75 76 77 77
46 55 60 63 66 69 66 64 62 62 62 63 64 60 58 61 58 52 49 51 54 54 54 56 56 59 62 66 69 72 77 81 78 76 75 76 78 79 80 80 80 81 83
Wind_Direction
271 274 276 276 277 276 277 278 278 274 268 265 268 278 285 297 286 249 191 183 190 208 213 223 232 242 258 270 276 274 270 279 276 271 277 279 279 277 287 284 295 280 303
271 272 274 277 281 283 284 280 273 267 267 271 277 284 292 295 271 230 190 185 191 209 210 225 230 243 252 257 264 252 246 255 255 265 273 282 267 254 277 247 260 259 315
272 275 273 276 278 285 274 271 269 266 268 274 283 289 295 284 239 211 191 193 193 200 210 221 244 247 245 244 245 232 243 233 246 237 246 248 240 219 279 271 276 252 3
267 270 272 269 273 279 267 264 268 269 272 276 290 296 293 268 229 200 193 200 195 205 205 206 225 222 224 243 244 229 220 225 232 224 225 259 249 266 308 298 290 271 310
259 263 272 270 272 274 264 260 268 268 277 285 295 301 283 245 226 206 196 198 199 205 213 222 208 228 234 248 240 228 222 224 222 229 237 253 249 259 283 300 276 258 262
256 255 264 268 267 269 262 259 267 274 278 288 301 303 253 225 215 207 205 197 210 212 214 225 224 231 238 245 236 224 222 223 228 244 228 238 240 254 265 277 270 257 262
256 253 255 265 261 264 260 261 270 275 283 293 301 294 236 219 212 204 199 204 221 217 216 218 225 232 238 240 234 227 227 222 234 242 232 238 246 257 268 269 270 282 278
251 253 254 257 260 259 257 259 272 279 287 297 302 286 227 221 213 205 201 205 219 221 216 219 226 231 236 238 235 235 229 230 230 238 237 241 253 255 260 274 264 273 279
242 246 246 251 258 256 254 262 267 275 287 298 306 268 216 222 216 212 204 204 218 222 217 221 225 241 241 234 238 240 242 240 239 235 246 252 257 266 264 274 274 269 281
236 241 243 249 255 255 258 262 262 272 285 292 302 255 218 220 219 218 207 210 218 224 223 220 220 233 237 237 241 246 248 247 244 247 248 251 264 260 266 271 273 266 273
236 238 241 245 252 257 258 259 265 269 286 289 296 261 225 221 222 222 217 214 219 226 225 223 223 227 233 239 246 248 247 247 243 241 245 251 260 261 260 259 260 267 275
233 234 235 242 246 254 257 265 260 271 283 286 283 255 231 227 230 221 223 220 224 225 229 227 226 226 234 237 239 240 240 244 245 242 238 235 243 247 257 270 274 276 280
230 230 232 238 244 256 252 255 267 272 278 284 277 245 240 235 237 231 230 232 230 229 230 230 228 228 231 234 240 241 238 241 244 247 244 244 251 255 264 270 275 281 286
230 224 231 236 252 245 246 259 261 269 272 280 274 254 238 237 243 241 239 235 233 233 235 230 232 232 233 236 238 243 245 244 242 244 249 255 256 261 270 274 279 284 287
222 212 223 232 235 245 250 249 259 267 273 269 275 255 239 238 236 239 241 234 232 233 236 236 237 239 238 239 241 243 247 249 250 253 256 255 261 269 270 274 280 284 286
205 201 213 220 233 240 246 243 255 267 265 274 279 270 238 238 241 238 240 239 236 235 236 238 239 240 243 245 245 247 250 252 255 255 258 260 263 270 274 275 278 281 285
194 204 212 221 227 239 249 250 257 260 270 279 288 279 242 236 240 240 242 246 243 239 238 241 238 238 240 244 248 253 255 257 259 260 257 260 262 270 271 272 276 280 282
204 212 213 215 225 231 244 251 258 263 268 276 289 274 243 237 242 246 245 246 246 244 239 241 242 238 239 242 248 254 255 255 257 260 260 262 265 265 271 270 277 279 283
210 212 219 222 230 234 253 259 256 263 270 283 287 257 237 239 245 251 248 247 244 243 240 239 239 241 240 242 247 252 255 256 261 264 264 266 270 269 270 272 277 280 279
211 214 214 222 224 238 245 249 255 266 272 280 280 241 238 246 252 249 249 246 243 239 237 239 238 239 242 244 247 250 254 257 260 261 261 262 264 269 271 272 273 276 275
218 216 219 228 233 239 250 259 265 263 271 286 279 243 247 252 250 247 246 246 244 241 238 237 238 235 238 243 243 244 246 249 250 258 262 266 269 269 271 270 272 273 273
223 222 227 245 253 248 254 258 259 266 269 274 287 255 255 257 252 246 241 239 243 245 249 245 241 235 232 233 240 247 252 254 259 260 260 263 267 269 270 270 270 273 275
218 230 247 244 253 248 249 254 260 265 268 267 279 267 259 261 257 244 238 237 242 249 246 241 233 226 230 235 243 248 252 255 255 259 260 264 270 271 271 271 272 273 275
218 227 226 228 243 249 257 260 266 269 273 273 272 273 259 259 258 251 244 233 236 236 233 238 230 231 228 232 240 246 251 252 259 260 267 269 269 270 272 274 275 274 277
225 229 234 244 249 255 254 260 263 264 262 263 264 266 256 256 259 252 246 240 234 240 239 237 233 233 233 235 236 244 250 254 257 260 264 268 270 271 271 274 278 279 280
238 247 248 249 250 249 251 256 259 262 265 267 268 270 260 259 253 250 244 241 239 238 240 247 244 243 243 243 246 249 252 256 262 266 269 271 272 271 273 275 278 280 279
Height
10690 10692 10691 10693 10696 10698 10698 10698 10697 10697 10695 10692 10692 10691 10691 10689 10686 10689 10693 10699 10709 10719 10724 10727 10727 10723 10726 10727 10728 10727 10726 10726 10726 10726 10726 10726 10726 10726 10726 10726 10726 10726 10725
10678 10681 10681 10682 10686 10687 10687 10687 10687 10687 10685 10683 10682 10682 10679 10678 10677 10683 10686 10691 10698 10708 10716 10720 10721 10721 10722 10723 10723 10723 10721 10722 10722 10723 10723 10723 10723 10723 10723 10723 10723 10723 10722
10666 10669 10670 10672 10676 10677 10677 10678 10677 10676 10676 10674 10673 10670 10668 10667 10668 10674 10677 10681 10688 10698 10707 10717 10715 10714 10715 10718 10717 10717 10717 10717 10719 10720 10720 10721 10721 10721 10720 10720 10720 10720 10718
10654 10658 10660 10661 10665 10667 10668 10669 10669 10667 10667 10665 10663 10659 10657 10655 10660 10667 10673 10677 10683 10690 10697 10705 10708 10708 10708 10711 10712 10712 10712 10713 10715 10716 10717 10718 10718 10718 10718 10717 10717 10717 10715
10641 10647 10649 10651 10654 10656 10658 10660 10660 10658 10657 10656 10653 10649 10645 10647 10652 10660 10666 10671 10678 10685 10691 10700 10701 10701 10703 10704 10706 10707 10707 10709 10710 10711 10713 10714 10714 10714 10714 10714 10714 10714 10713
10628 10635 10640 10641 10644 10646 10649 10649 10650 10650 10647 10647 10643 10640 10637 10642 10647 10654 10661 10667 10672 10676 10684 10690 10691 10694 10695 10696 10699 10700 10702 10703 10705 10706 10707 10709 10709 10709 10709 10709 10709 10709 10709
10616 10623 10629 10632 10633 10637 10640 10639 10639 10639 10638 10638 10632 10629 10629 10635 10642 10649 10655 10660 10664 10668 10672 10679 10681 10684 10687 10689 10691 10693 10695 10697 10699 10701 10702 10703 10703 10703 10703 10704 10704 10705 10704
10603 10609 10616 10620 10622 10627 10630 10630 10630 10629 10629 10629 10624 10620 10621 10628 10633 10638 10644 10650 10654 10659 10664 10670 10673 10677 10680 10682 10684 10686 10689 10691 10693 10695 10696 10696 10696 10696 10698 10698 10698 10698 10698
10587 10595 10603 10608 10612 10617 10619 10621 10621 10620 10620 10619 10615 10612 10615 10620 10625 10630 10635 10640 10644 10650 10656 10661 10668 10671 10673 10674 10676 10679 10682 10684 10686 10687 10688 10689 10690 10691 10691 10691 10691 10691 10691
10572 10582 10591 10598 10601 10606 10609 10612 10611 10612 10612 10610 10608 10607 10610 10614 10618 10623 10626 10629 10637 10642 10647 10653 10658 10660 10664 10667 10669 10671 10674 10676 10678 10679 10681 10682 10684 10684 10684 10684 10684 10683 10683
10559 10569 10580 10587 10590 10594 10599 10602 10602 10603 10603 10601 10601 10602 10604 10607 10611 10613 10619 10624 10628 10632 10638 10644 10648 10652 10655 10659 10661 10664 10666 10668 10670 10671 10674 10676 10677 10678 10677 10677 10676 10676 10675
10544 10555 10568 10576 10581 10585 10589 10592 10593 10593 10594 10593 10592 10594 10598 10600 10602 10607 10611 10616 10620 10623 10628 10633 10639 10643 10647 10650 10653 10656 10659 10661 10663 10664 10665 10667 10668 10668 10669 10668 10668 10666 10666
10532 10542 10556 10564 10569 10575 10579 10581 10582 10584 10584 10584 10584 10585 10588 10591 10594 10598 10603 10607 10611 10614 10620 10624 10629 10634 10638 10641 10643 10647 10649 10652 10654 10654 10656 10657 10658 10660 10660 10659 10658 10656 10655
10517 10532 10546 10554 10561 10567 10568 10569 10572 10573 10575 10574 10574 10575 10578 10582 10585 10588 10591 10594 10600 10605 10610 10615 10619 10624 10628 10631 10633 10637 10639 10641 10643 10643 10646 10648 10648 10649 10649 10649 10647 10646 10645
10509 10524 10536 10546 10552 10557 10559 10559 10561 10563 10563 10563 10564 10564 10567 10570 10573 10577 10580 10583 10588 10594 10598 10603 10608 10612 10616 10619 10622 10626 10629 10630 10632 10636 10637 10637 10637 10638 10637 10636 10636 10634 10633
10502 10513 10526 10535 10544 10544 10546 10548 10550 10552 10552 10552 10552 10553 10555 10558 10562 10564 10568 10570 10575 10581 10587 10590 10594 10598 10603 10607 10610 10616 10617 10621 10624 10625 10626 10626 10627 10626 10625 10625 10624 10623 10621
10494 10506 10518 10526 10529 10532 10537 10538 10539 10541 10541 10540 10541 10541 10541 10546 10550 10552 10556 10559 10563 10566 10571 10577 10580 10585 10591 10595 10598 10601 10605 10610 10610 10613 10614 10614 10614 10613 10613 10613 10612 10611 10609
10490 10501 10508 10513 10516 10522 10525 10526 10528 10529 10530 10529 10529 10528 10528 10534 10538 10540 10543 10545 10548 10553 10559 10563 10567 10573 10579 10582 10584 10589 10592 10595 10597 10598 10598 10600 10600 10600 10600 10599 10598 10596 10594
10484 10492 10497 10501 10506 10509 10513 10514 10516 10518 10518 10518 10516 10514 10518 10523 10526 10527 10530 10531 10535 10539 10545 10550 10554 10560 10565 10570 10574 10576 10578 10581 10582 10583 10584 10584 10584 10584 10585 10584 10582 10580 10579
10469 10477 10483 10488 10492 10497 10500 10502 10505 10507 10508 10508 10504 10505 10509 10513 10514 10515 10517 10520 10522 10526 10531 10536 10541 10547 10553 10557 10560 10562 10565 10566 10568 10569 10569 10569 10569 10569 10569 10568 10567 10566 10563
10464 10470 10476 10480 10483 10485 10488 10491 10493 10496 10499 10500 10497 10498 10500 10503 10504 10505 10508 10510 10512 10514 10518 10523 10527 10533 10540 10544 10548 10548 10550 10552 10553 10553 10552 10552 10552 10554 10553 10552 10551 10549 10547
10457 10460 10467 10471 10470 10473 10476 10480 10481 10485 10489 10490 10491 10492 10493 10494 10495 10496 10498 10500 10503 10504 10506 10509 10512 10519 10525 10529 10532 10532 10532 10535 10537 10536 10536 10537 10537 10538 10536 10536 10534 10533 10531
10449 10454 10459 10460 10461 10463 10464 10466 10469 10473 10477 10480 10482 10483 10484 10485 10486 10487 10489 10490 10492 10494 10496 10498 10501 10506 10511 10515 10517 10517 10517 10517 10518 10518 10520 10521 10521 10519 10519 10519 10518 10516 10513
10439 10443 10446 10447 10449 10451 10452 10455 10459 10462 10464 10466 10469 10471 10472 10474 10476 10477 10478 10479 10482 10484 10487 10490 10492 10495 10497 10499 10500 10500 10500 10501 10502 10503 10503 10503 10503 10503 10502 10502 10499 10496 10493
10430 10432 10433 10436 10437 10439 10440 10443 10446 10447 10449 10452 10455 10458 10460 10461 10463 10466 10468 10469 10470 10473 10475 10478 10480 10482 10482 10484 10485 10485 10486 10485 10485 10486 10486 10485 10484 10484 10483 10481 10479 10475 10471
10418 10417 10420 10420 10422 10422 10424 10429 10430 10432 10435 10437 10440 10443 10444 10446 10449 10451 10453 10455 10458 10460 10462 10463 10466 10468 10469 10470 10470 10470 10469 10467 10468 10469 10469 10466 10464 10463 10462 10460 10457 10454 10451